| time (UTC) | temp F | wind direction | speed MPH | gust MPH | rain 1hr in | rain 24hr in | rain mn in | humidity % | barometer mb |
| 20260504050001 | 46 | 317 | 0.0 | 0.0 | 0.00 | 0.00 | 0.00 | 85 | 1011.9 |
| 20260504044500 | 46 | 317 | 0.0 | 0.0 | 0.00 | 0.00 | 0.00 | 84 | 1012.0 |
| 20260504043000 | 46 | 317 | 0.0 | 0.0 | 0.00 | 0.00 | 0.00 | 83 | 1012.0 |
| 20260504041500 | 47 | 317 | 0.0 | 0.0 | 0.00 | 0.00 | 0.00 | 82 | 1012.2 |
| 20260504040006 | 47 | 317 | 0.0 | 0.0 | 0.00 | 0.00 | 0.00 | 81 | 1012.3 |
| 20260504034500 | 47 | 317 | 0.0 | 0.0 | 0.00 | 0.00 | 0.00 | 80 | 1012.4 |
| 20260504031503 | 49 | 309 | 0.0 | 0.0 | 0.00 | 0.00 | 0.00 | 77 | 1012.6 |
| 20260504030002 | 49 | 309 | 0.0 | 0.0 | 0.00 | 0.00 | 0.00 | 76 | 1012.6 |
| 20260504024500 | 50 | 243 | 0.0 | 0.0 | 0.00 | 0.00 | 0.00 | 72 | 1012.7 |
| 20260504023001 | 52 | 243 | 0.0 | 0.0 | 0.00 | 0.00 | 0.00 | 69 | 1012.8 |
| 20260504021500 | 54 | 243 | 0.0 | 0.0 | 0.00 | 0.00 | 0.00 | 63 | 1012.7 |
| 20260504020002 | 55 | 244 | 1.0 | 3.0 | 0.00 | 0.00 | 0.00 | 61 | 1012.7 |
| 20260504014501 | 56 | 218 | 1.0 | 4.0 | 0.00 | 0.00 | 0.00 | 59 | 1012.6 |
| 20260504013001 | 56 | 246 | 2.0 | 6.0 | 0.00 | 0.00 | 0.00 | 58 | 1012.7 |
| 20260504011502 | 56 | 208 | 1.0 | 5.0 | 0.00 | 0.00 | 0.00 | 56 | 1012.7 |
| 20260504010002 | 57 | 271 | 3.0 | 10.0 | 0.00 | 0.00 | 0.00 | 53 | 1012.6 |
| 20260504004502 | 58 | 261 | 4.0 | 10.0 | 0.00 | 0.00 | 0.00 | 50 | 1012.5 |
| 20260504003000 | 58 | 234 | 4.0 | 9.0 | 0.00 | 0.00 | 0.00 | 47 | 1012.4 |
| 20260504000003 | 59 | 235 | 3.0 | 13.0 | 0.00 | 0.00 | 0.00 | 45 | 1012.4 |
| 20260503234500 | 60 | 273 | 4.0 | 14.0 | 0.00 | 0.00 | 0.00 | 45 | 1012.7 |
| 20260503233000 | 60 | 236 | 4.0 | 11.0 | 0.00 | 0.00 | 0.00 | 44 | 1012.6 |
| 20260503231501 | 60 | 208 | 3.0 | 9.0 | 0.00 | 0.00 | 0.00 | 42 | 1012.6 |
| 20260503230002 | 61 | 243 | 4.0 | 13.0 | 0.00 | 0.00 | 0.00 | 42 | 1012.8 |
| 20260503224459 | 61 | 190 | 5.0 | 16.0 | 0.00 | 0.00 | 0.00 | 40 | 1013.2 |
| 20260503222959 | 62 | 198 | 5.0 | 13.0 | 0.00 | 0.00 | 0.00 | 40 | 1013.1 |
| 20260503220000 | 61 | 200 | 6.0 | 12.0 | 0.00 | 0.00 | 0.00 | 40 | 1013.5 |
| 20260503212959 | 62 | 291 | 7.0 | 15.0 | 0.00 | 0.00 | 0.00 | 39 | 1014.1 |
| 20260503211500 | 63 | 263 | 7.0 | 20.0 | 0.00 | 0.00 | 0.00 | 38 | 1014.2 |
| 20260503210000 | 62 | 230 | 7.0 | 15.0 | 0.00 | 0.00 | 0.00 | 38 | 1014.3 |
| 20260503204459 | 61 | 311 | 5.0 | 12.0 | 0.00 | 0.00 | 0.00 | 38 | 1014.5 |
| 20260503202959 | 62 | 197 | 6.0 | 15.0 | 0.00 | 0.00 | 0.00 | 37 | 1015.0 |
| 20260503201500 | 61 | 323 | 7.0 | 17.0 | 0.00 | 0.00 | 0.00 | 38 | 1015.7 |
| 20260503200002 | 60 | 229 | 7.0 | 13.0 | 0.00 | 0.00 | 0.00 | 36 | 1015.6 |
| 20260503194502 | 61 | 286 | 7.0 | 17.0 | 0.00 | 0.00 | 0.00 | 38 | 1015.6 |
| 20260503193001 | 61 | 146 | 5.0 | 17.0 | 0.00 | 0.00 | 0.00 | 37 | 1015.8 |
| 20260503191502 | 58 | 297 | 7.0 | 18.0 | 0.00 | 0.00 | 0.00 | 40 | 1016.1 |
| 20260503190002 | 58 | 271 | 6.0 | 14.0 | 0.00 | 0.00 | 0.00 | 38 | 1016.7 |
| 20260503184501 | 60 | 293 | 6.0 | 16.0 | 0.00 | 0.00 | 0.00 | 37 | 1016.9 |
| 20260503183002 | 61 | 231 | 7.0 | 16.0 | 0.00 | 0.00 | 0.00 | 38 | 1017.0 |
| 20260503181501 | 60 | 285 | 8.0 | 23.0 | 0.00 | 0.00 | 0.00 | 38 | 1017.3 |
| 20260503180001 | 60 | 291 | 7.0 | 21.0 | 0.00 | 0.00 | 0.00 | 37 | 1017.5 |
| 20260503174500 | 60 | 281 | 7.0 | 13.0 | 0.00 | 0.00 | 0.00 | 36 | 1017.7 |
| 20260503173000 | 60 | 278 | 6.0 | 15.0 | 0.00 | 0.00 | 0.00 | 35 | 1017.8 |
| 20260503171500 | 60 | 236 | 6.0 | 15.0 | 0.00 | 0.00 | 0.00 | 36 | 1017.9 |
| 20260503081459 | 30 | 15 | 0.0 | 0.0 | 0.00 | 0.00 | 0.00 | 95 | 1018.8 |